Probability
0 0 0 0 0 0 0 0 0 0 0 0 0 0 0 0 0 0 0 0 0 0 0 0 0 0 0 0 0 0 0 0 0 0 0 0 0 0 0 0 0 0 0 0
0 0 0 0 0 0 0 0 0 0 0 0 0 0 0 0 0 0 0 0 0 0 0 0 0 0 0 0 0 0 0 0 0 0 0 0 0 0 0 0 0 0 0 0
0 0 0 0 0 0 0 0 0 0 0 0 0 0 0 0 0 0 0 0 0 0 0 0 0 0 0 0 0 0 0 0 0 0 0 0 0 0 0 0 0 0 0 0
0 0 0 0 0 0 0 0 0 0 0 0 0 0 0 0 0 0 0 0 0 0 0 0 0 0 0 0 0 0 0 0 0 0 0 0 0 0 0 0 0 0 0 0
0 0 0 0 0 0 0 0 0 0 0 0 0 0 0 0 0 0 0 0 0 0 0 0 0 0 0 0 0 0 0 0 0 0 0 0 0 0 0 0 0 0 0 0
0 0 0 0 0 0 0 0 0 0 0 0 0 0 0 0 0 0 0 0 0 0 0 0 0 0 0 0 0 0 0 0 0 0 0 0 0 0 0 0 0 0 0 0
0 0 0 0 0 0 0 0 0 0 0 0 0 0 0 0 0 0 0 0 0 0 0 0 0 0 0 0 0 0 0 0 0 0 0 0 0 0 0 0 0 0 0 0
0 0 0 0 0 0 0 0 0 0 0 0 0 0 0 0 0 0 0 0 0 0 0 0 0 0 0 0 0 0 0 0 0 0 0 0 0 0 0 0 0 0 0 0
0 0 0 0 0 0 0 0 0 0 0 0 0 0 0 0 0 0 0 0 0 0 0 0 0 0 0 0 0 0 0 0 0 0 0 0 0 0 0 0 0 0 0 0
0 0 0 0 0 0 0 0 0 0 0 0 0 0 0 0 0 0 0 0 0 0 0 0 0 0 0 0 0 0 0 0 0 0 0 0 0 0 0 0 0 0 0 0
0 0 0 0 0 0 0 0 0 0 0 0 0 0 0 0 0 0 0 0 0 0 0 0 0 0 0 0 0 0 0 0 0 0 0 0 0 0 0 0 0 0 0 0
0 0 0 0 0 0 0 0 0 0 0 0 0 0 0 0 0 0 0 0 0 0 0 0 0 0 0 0 0 0 0 0 0 0 0 0 0 0 0 0 0 0 0 0
0 0 0 0 0 0 0 0 0 0 0 0 0 0 0 0 0 0 0 0 0 0 0 0 0 0 0 0 0 0 0 0 0 0 0 0 0 0 0 0 0 0 0 0
0 0 0 0 0 0 0 0 0 0 0 0 0 0 0 0 0 0 0 0 0 0 0 0 0 0 0 0 0 0 0 0 0 0 0 0 0 0 0 0 0 0 0 0
0 0 0 0 0 0 0 0 0 0 0 0 0 0 0 0 0 0 0 0 0 0 0 0 0 0 0 0 0 0 0 0 0 0 0 0 0 0 0 0 0 0 0 0
0 0 0 0 0 0 0 0 0 0 0 0 0 0 0 0 0 0 0 0 0 0 0 0 0 0 0 0 0 0 0 0 0 0 0 0 0 0 0 0 0 0 0 0
0 0 0 0 0 0 0 0 0 0 0 0 0 0 0 0 0 0 0 0 0 0 0 0 0 0 0 0 0 0 0 0 0 0 0 0 0 0 0 0 0 0 0 0
0 0 0 0 0 0 0 0 0 0 0 0 0 0 0 0 0 0 0 0 0 0 0 0 0 0 0 0 0 0 0 0 0 0 0 0 0 0 0 0 0 0 0 0
0 0 0 0 0 0 0 0 0 0 0 0 0 0 0 0 0 0 0 0 0 0 0 0 0 0 0 0 0 0 0 0 0 0 0 0 0 0 0 0 0 0 0 0
0 0 0 0 0 0 0 0 0 0 0 0 0 0 0 0 0 0 0 0 0 0 0 0 0 0 0 0 0 0 0 0 0 0 0 0 0 0 0 0 0 0 0 0
0 0 0 0 0 0 0 0 0 0 0 0 0 0 0 0 0 0 0 0 0 0 0 0 0 0 0 0 0 0 0 0 0 0 0 0 0 0 0 0 0 0 0 0
0 0 0 0 0 0 0 0 0 0 0 0 0 0 0 0 0 0 0 0 0 0 0 0 0 0 0 0 0 0 0 0 0 0 0 0 0 0 0 0 0 0 0 0
0 0 0 0 0 0 0 0 0 0 0 0 0 0 0 0 0 0 0 0 0 0 0 0 0 0 0 0 0 0 0 0 0 0 0 0 0 0 0 0 0 0 0 0
0 0 0 0 0 0 0 0 0 0 0 0 0 0 0 0 0 0 0 0 0 0 0 0 0 0 0 0 0 0 0 0 0 0 0 0 0 0 0 0 0 0 0 0
0 0 0 0 0 0 0 0 0 0 0 0 0 0 0 0 0 0 0 0 0 0 0 0 0 0 0 0 0 0 0 0 0 0 0 0 0 0 0 0 0 0 0 0
0 0 0 0 0 0 0 0 0 0 0 0 0 0 0 0 0 0 0 0 0 0 0 0 0 0 0 0 0 0 0 0 0 0 0 0 0 0 0 0 0 0 0 0
0 0 0 0 0 0 0 0 0 0 0 0 0 0 0 0 0 0 0 0 0 0 0 0 0 0 0 0 0 0 0 0 0 0 0 0 0 0 0 0 0 0 0 0
Wind_Speed
8 8 6 8 8 7 8 8 7 8 6 5 3 3 3 3 4 4 4 4 5 5 4 4 5 5 5 5 5 6 6 7 6 7 6 7 7 7 7 7 8 8 7 7
7 7 6 9 10 9 9 8 9 9 8 3 2 2 3 4 5 5 5 5 5 5 5 6 6 6 5 5 5 5 6 7 7 7 7 7 7 7 7 7 7 7 7 7
5 2 5 9 7 7 5 4 4 7 5 2 4 4 4 5 4 5 5 6 6 6 6 5 5 6 6 5 6 6 6 6 7 7 7 7 8 8 8 8 7 7 7 7
4 3 7 5 1 2 3 4 4 4 3 2 3 4 4 3 3 5 5 6 6 6 6 6 5 5 5 5 5 6 6 6 7 7 7 7 7 7 7 7 7 7 7 7
2 4 8 2 1 2 1 4 2 3 3 3 4 4 2 3 4 4 4 5 5 5 5 6 5 5 5 6 5 6 6 7 7 7 7 7 8 7 7 7 7 7 7 7
3 4 7 2 2 2 1 4 1 1 2 3 3 3 3 4 5 5 5 5 5 5 5 6 6 4 5 6 6 6 7 7 7 7 7 7 7 7 7 6 7 7 7 6
6 6 7 1 2 1 1 4 1 1 2 2 2 3 4 5 5 5 5 5 5 6 5 5 5 5 5 6 6 6 7 7 7 7 7 7 6 6 6 6 7 6 7 6
4 6 7 2 3 3 3 1 2 2 2 2 3 4 4 4 5 6 6 6 6 5 6 6 5 5 6 7 6 6 6 7 7 7 6 6 6 6 5 5 6 6 6 6
6 6 1 3 3 1 1 1 2 2 3 2 3 4 5 4 5 5 6 6 5 5 6 6 5 5 7 7 6 6 7 7 7 7 6 6 5 5 5 4 4 5 5 5
3 3 1 2 1 1 1 1 2 3 3 3 3 4 4 5 5 5 6 6 5 6 7 7 6 6 6 7 6 6 7 7 7 6 6 5 5 4 4 4 4 5 5 5
4 3 2 1 0 1 1 2 2 2 2 2 3 4 4 4 5 5 6 6 6 6 6 7 7 7 7 6 6 6 6 6 6 6 6 5 5 4 5 4 5 5 4 5
4 2 2 1 1 0 1 1 2 2 3 3 2 3 4 4 4 4 5 5 6 6 7 7 7 7 7 6 6 6 7 7 5 5 5 5 5 5 8 8 10 10 9 8
2 1 0 1 1 1 0 2 2 1 2 3 3 3 4 4 4 4 5 5 6 6 7 7 7 7 7 6 7 6 6 7 6 6 5 5 6 6 6 7 10 10 11 11
1 1 1 1 1 1 1 1 1 2 2 2 2 3 3 4 4 5 5 6 6 6 6 6 6 6 6 6 6 6 6 7 7 5 5 5 5 5 5 6 6 6 8 11
1 1 2 1 0 1 1 1 1 2 2 2 2 3 4 4 5 5 5 6 6 6 6 6 6 7 6 6 7 6 6 5 5 5 5 5 5 5 5 5 5 5 5 7
1 1 1 0 1 1 1 1 2 3 3 3 3 3 4 4 5 5 5 5 5 6 7 7 7 7 6 6 7 6 5 9 8 6 5 5 5 5 5 5 5 5 5 6
2 2 2 2 2 2 2 2 2 3 3 3 4 4 4 5 5 5 5 5 5 6 6 7 7 7 7 6 6 5 5 6 10 7 5 5 5 5 5 4 4 5 5 7
3 3 3 3 3 2 2 2 2 3 3 4 4 4 4 4 5 6 6 6 6 6 6 7 7 7 7 7 5 5 5 5 5 5 5 5 5 4 4 4 5 5 5 6
1 1 1 1 1 2 2 2 3 3 3 3 3 4 4 5 5 6 6 6 6 7 6 6 11 8 7 7 7 4 5 5 5 5 5 7 6 5 4 4 5 5 5 5
0 0 0 1 1 1 2 2 2 3 3 3 3 4 5 5 5 5 5 5 4 4 5 7 7 6 6 6 8 4 4 5 5 5 5 5 5 5 4 5 5 5 5 4
0 0 0 1 1 2 2 2 2 3 3 3 3 5 5 6 5 5 5 6 5 5 6 9 6 5 5 7 8 4 3 4 5 5 5 5 5 5 5 5 5 5 5 5
0 0 1 1 1 2 2 2 2 3 3 4 4 4 5 6 6 5 5 4 5 9 6 4 5 8 10 9 3 3 3 4 4 4 4 4 4 4 5 5 5 5 5 4
1 0 1 1 1 2 3 2 2 3 3 4 4 5 5 5 4 5 5 4 4 9 7 5 9 13 13 6 3 3 4 4 4 4 4 4 4 4 4 5 4 4 4 4
1 1 1 1 1 1 3 3 3 3 4 4 4 4 4 4 4 3 4 8 10 11 6 8 13 13 10 3 3 4 4 4 4 4 4 4 4 4 4 4 4 4 4 5
1 1 1 1 1 2 3 3 3 3 4 3 4 4 3 3 4 4 4 5 9 9 5 8 12 11 6 4 4 4 4 4 5 4 3 4 4 4 4 4 4 4 4 4
1 1 1 2 2 2 2 2 3 3 4 4 4 3 3 3 4 4 4 5 6 8 6 4 5 6 4 4 4 4 4 5 5 4 4 4 4 4 4 4 5 5 4 5
1 1 1 2 2 2 2 2 3 4 4 4 5 4 4 4 4 4 5 4 4 4 4 4 4 4 4 4 4 4 4 4 4 4 4 4 4 4 4 5 5 5 4 5
Wind_Direction
267 280 276 267 261 240 231 236 249 273 289 296 314 321 327 331 332 331 331 335 338 336 332 327 324 320 318 317 320 320 318 316 315 315 316 317 315 313 313 310 306 300 294 286
277 263 265 269 259 246 244 245 255 276 282 291 321 343 340 333 332 330 332 336 337 333 330 329 326 322 318 316 316 316 313 313 315 317 318 320 318 317 316 311 307 302 297 292
273 291 308 268 243 219 225 226 227 249 261 341 340 332 324 318 325 330 332 335 332 327 322 322 323 322 312 308 311 311 309 313 316 316 318 320 321 321 318 315 313 309 306 303
280 312 253 244 55 128 210 249 240 256 283 318 315 316 307 322 354 337 333 331 328 327 327 323 320 321 318 312 310 308 310 315 317 317 317 318 318 318 319 318 315 311 310 308
250 266 270 244 126 109 191 276 259 258 299 324 346 329 320 29 15 343 333 330 328 326 321 320 321 322 320 315 312 312 315 316 318 317 315 314 314 316 317 317 316 314 312 313
233 254 261 247 98 81 83 273 343 28 319 333 351 311 292 355 352 341 337 335 333 329 328 327 326 330 323 316 317 316 316 316 316 314 312 311 311 312 314 314 313 315 315 314
231 246 262 191 149 115 203 257 3 7 331 332 289 264 299 333 336 335 331 330 331 328 327 326 329 331 319 316 315 315 317 314 314 313 312 307 308 310 314 316 316 317 315 314
205 228 248 134 135 186 227 359 3 353 356 329 305 312 325 330 329 330 329 331 333 330 327 329 334 335 325 319 317 320 319 317 314 314 313 315 313 315 317 317 317 320 320 319
203 219 200 145 160 170 46 348 342 342 339 331 314 312 319 322 323 325 328 330 332 328 325 329 335 336 324 319 323 324 321 319 316 315 315 315 314 316 317 318 319 320 321 321
259 258 225 170 174 18 25 7 351 349 339 330 310 312 318 321 325 326 329 330 333 332 330 331 335 334 325 323 326 323 320 319 321 323 320 320 319 320 319 318 316 317 318 319
253 276 313 243 298 355 7 7 352 343 335 322 316 314 316 317 319 321 326 329 329 329 327 326 330 329 327 328 329 323 318 318 323 324 322 322 321 320 319 311 312 313 311 311
229 220 205 245 287 346 334 320 321 327 327 332 321 308 313 313 317 320 321 324 325 326 325 324 326 326 328 331 329 325 323 324 323 321 321 323 322 324 331 328 328 329 330 327
217 351 321 270 347 55 297 309 324 317 299 309 317 315 315 314 319 319 320 323 322 320 318 318 321 324 328 330 329 327 324 323 320 321 323 322 322 324 326 333 339 340 340 339
151 91 291 288 316 6 355 337 335 320 311 304 310 317 315 313 315 318 318 316 315 315 315 317 319 322 325 328 328 327 324 321 321 320 320 317 319 319 320 324 329 334 339 341
239 213 225 265 336 360 357 354 337 320 319 325 329 323 319 316 314 312 313 317 320 319 319 321 322 321 323 327 327 325 323 321 320 320 319 317 319 319 320 321 323 326 331 337
254 219 196 232 280 300 319 311 295 295 308 315 319 317 315 309 306 309 314 321 321 316 316 318 316 318 325 328 324 324 323 325 327 327 326 326 325 325 325 325 326 327 328 330
177 217 231 258 268 272 269 268 269 283 297 301 304 310 315 316 314 314 316 318 312 306 309 313 316 323 326 323 320 320 320 322 326 329 329 328 327 327 326 327 327 326 325 327
216 221 214 224 242 259 275 283 286 292 293 297 307 312 312 310 306 307 311 314 314 310 311 315 319 323 322 323 323 319 317 317 322 323 324 325 325 326 326 326 326 326 326 330
217 215 216 246 246 245 259 275 287 293 300 305 305 301 297 295 296 300 306 310 310 308 311 316 323 327 323 321 324 313 313 316 321 323 323 325 330 329 328 327 326 327 327 329
190 110 67 312 308 270 270 284 291 293 296 300 301 301 302 301 303 304 305 297 284 286 302 315 321 319 317 315 319 313 316 319 320 321 322 321 322 324 324 324 325 326 328 330
300 352 336 310 307 302 287 284 283 288 298 299 293 293 296 299 299 298 300 301 304 309 315 320 323 314 311 313 319 319 318 317 317 317 318 318 319 320 322 324 325 326 327 328
264 250 276 294 306 307 305 297 284 285 292 294 293 294 299 302 305 302 289 284 303 318 323 312 308 311 319 324 320 314 314 314 313 313 314 316 316 317 319 323 323 323 325 325
298 288 291 293 290 295 302 294 285 283 283 286 291 294 295 296 297 299 304 307 311 316 320 307 311 318 326 334 322 314 312 311 310 309 311 312 312 313 314 315 315 317 317 318
346 330 310 306 307 304 302 303 301 294 286 285 284 284 288 297 297 285 289 310 317 317 313 311 319 322 330 329 313 309 308 306 303 301 304 307 307 307 306 308 311 312 312 312
328 303 293 306 303 296 299 310 310 305 303 300 300 296 290 285 288 298 298 299 308 315 313 315 320 325 327 311 308 306 304 300 302 306 305 307 305 305 304 303 303 303 304 304
311 297 291 284 284 295 306 309 306 304 307 308 308 304 301 296 293 295 297 297 300 311 312 306 309 314 311 307 303 303 302 306 310 309 302 300 297 297 298 300 301 299 297 296
322 317 317 318 316 315 308 302 300 302 305 304 307 309 310 310 306 304 303 303 304 304 303 303 303 302 303 304 303 301 300 300 300 299 297 295 295 294 295 297 297 297 297 295